Time,TemperatureF,DewpointF,PressureIn,WindDirection,WindDirectionDegrees,WindSpeedMPH,WindSpeedGustMPH,Humidity,HourlyPrecipIn,Conditions,Clouds,dailyrainin,SoftwareType,DateUTC
2014-04-17 00:01:00,37.2,32.0,30.17,SW,224,2.0,5.0,81,0.00,,,0.00,weatherlink.com 1.10,2014-04-17 05:01:00,
2014-04-17 00:16:00,37.3,32.0,30.16,SE,142,2.0,12.0,81,0.00,,,0.00,weatherlink.com 1.10,2014-04-17 05:16:00,
2014-04-17 00:31:00,37.4,32.0,30.15,SE,127,3.0,15.0,81,0.00,,,0.00,weatherlink.com 1.10,2014-04-17 05:31:00,
2014-04-17 00:46:00,37.4,32.0,30.15,SSE,162,5.0,15.0,82,0.00,,,0.00,weatherlink.com 1.10,2014-04-17 05:46:00,
2014-04-17 01:01:00,37.3,33.0,30.15,SE,139,2.0,11.0,83,0.00,,,0.00,weatherlink.com 1.10,2014-04-17 06:01:00,
2014-04-17 01:16:00,37.4,33.0,30.15,SSE,155,0.0,10.0,83,0.00,,,0.00,weatherlink.com 1.10,2014-04-17 06:16:00,
2014-04-17 01:31:00,37.6,33.0,30.15,ESE,113,5.0,14.0,82,0.00,,,0.00,weatherlink.com 1.10,2014-04-17 06:31:00,
2014-04-17 01:46:00,37.7,33.0,30.14,SSE,150,5.0,14.0,82,0.00,,,0.00,weatherlink.com 1.10,2014-04-17 06:46:00,
2014-04-17 02:01:00,37.6,33.0,30.14,South,180,1.0,12.0,83,0.00,,,0.00,weatherlink.com 1.10,2014-04-17 07:01:00,
2014-04-17 02:16:00,37.5,33.0,30.14,South,184,6.0,11.0,83,0.00,,,0.00,weatherlink.com 1.10,2014-04-17 07:16:00,
2014-04-17 02:31:00,37.5,33.0,30.14,SSW,195,3.0,9.0,83,0.00,,,0.00,weatherlink.com 1.10,2014-04-17 07:31:00,
2014-04-17 02:46:00,37.5,33.0,30.13,ENE,70,3.0,10.0,83,0.00,,,0.00,weatherlink.com 1.10,2014-04-17 07:46:00,
2014-04-17 03:01:00,37.5,33.0,30.13,SE,126,12.0,13.0,83,0.00,,,0.00,weatherlink.com 1.10,2014-04-17 08:01:00,
2014-04-17 03:16:00,37.6,33.0,30.13,SSE,162,1.0,11.0,83,0.00,,,0.00,weatherlink.com 1.10,2014-04-17 08:16:00,
2014-04-17 03:31:00,37.5,33.0,30.13,SE,132,7.0,11.0,83,0.00,,,0.00,weatherlink.com 1.10,2014-04-17 08:31:00,
2014-04-17 03:46:00,37.4,33.0,30.12,South,179,3.0,11.0,83,0.00,,,0.00,weatherlink.com 1.10,2014-04-17 08:46:00,
2014-04-17 04:01:00,37.3,33.0,30.12,SSE,148,5.0,11.0,84,0.00,,,0.00,weatherlink.com 1.10,2014-04-17 09:01:00,
2014-04-17 04:16:00,37.2,33.0,30.12,SSE,148,4.0,11.0,84,0.00,,,0.00,weatherlink.com 1.10,2014-04-17 09:16:00,
2014-04-17 04:31:00,37.1,33.0,30.11,SE,139,4.0,9.0,84,0.00,,,0.00,weatherlink.com 1.10,2014-04-17 09:31:00,
2014-04-17 04:46:00,37.1,33.0,30.11,South,187,4.0,14.0,84,0.00,,,0.00,weatherlink.com 1.10,2014-04-17 09:46:00,
2014-04-17 05:02:00,37.1,33.0,30.10,SE,139,4.0,11.0,84,0.00,,,0.00,weatherlink.com 1.10,2014-04-17 10:02:00,
2014-04-17 05:16:00,37.1,32.0,30.10,SSW,192,4.0,15.0,83,0.00,,,0.00,weatherlink.com 1.10,2014-04-17 10:16:00,
2014-04-17 05:31:00,37.4,32.0,30.10,SSE,167,3.0,12.0,82,0.00,,,0.00,weatherlink.com 1.10,2014-04-17 10:31:00,
2014-04-17 05:47:00,37.5,33.0,30.09,SSE,155,5.0,14.0,82,0.00,,,0.00,weatherlink.com 1.10,2014-04-17 10:47:00,
2014-04-17 06:02:00,37.2,33.0,30.09,SSE,156,13.0,13.0,83,0.00,,,0.00,weatherlink.com 1.10,2014-04-17 11:02:00,
2014-04-17 06:17:00,37.3,33.0,30.09,East,97,3.0,13.0,83,0.00,,,0.00,weatherlink.com 1.10,2014-04-17 11:17:00,
2014-04-17 06:32:00,37.4,33.0,30.09,South,177,4.0,13.0,83,0.00,,,0.00,weatherlink.com 1.10,2014-04-17 11:32:00,
2014-04-17 06:47:00,37.8,33.0,30.09,SSE,152,9.0,15.0,83,0.00,,,0.00,weatherlink.com 1.10,2014-04-17 11:47:00,
2014-04-17 07:02:00,37.9,33.0,30.09,ESE,122,9.0,17.0,82,0.00,,,0.00,weatherlink.com 1.10,2014-04-17 12:02:00,
2014-04-17 07:17:00,38.1,33.0,30.08,ENE,66,4.0,19.0,82,0.00,,,0.00,weatherlink.com 1.10,2014-04-17 12:17:00,
2014-04-17 07:32:00,38.4,33.0,30.08,SE,134,12.0,15.0,82,0.00,,,0.00,weatherlink.com 1.10,2014-04-17 12:32:00,
2014-04-17 07:47:00,38.4,33.0,30.09,SSE,158,6.0,19.0,82,0.00,,,0.00,weatherlink.com 1.10,2014-04-17 12:47:00,
2014-04-17 08:02:00,39.0,34.0,30.09,SSE,150,11.0,14.0,82,0.00,,,0.00,weatherlink.com 1.10,2014-04-17 13:02:00,
2014-04-17 08:17:00,39.6,34.0,30.09,SSW,210,11.0,18.0,81,0.00,,,0.00,weatherlink.com 1.10,2014-04-17 13:17:00,
2014-04-17 08:32:00,39.7,34.0,30.09,SE,126,8.0,14.0,81,0.00,,,0.00,weatherlink.com 1.10,2014-04-17 13:32:00,
2014-04-17 08:47:00,40.2,35.0,30.09,ESE,103,0.0,13.0,82,0.00,,,0.00,weatherlink.com 1.10,2014-04-17 13:47:00,
2014-04-17 09:02:00,41.1,35.0,30.09,South,180,7.0,13.0,80,0.00,,,0.00,weatherlink.com 1.10,2014-04-17 14:02:00,
2014-04-17 09:17:00,42.6,36.0,30.09,ESE,122,10.0,11.0,78,0.00,,,0.00,weatherlink.com 1.10,2014-04-17 14:17:00,
2014-04-17 09:32:00,42.8,36.0,30.09,SE,129,4.0,16.0,77,0.00,,,0.00,weatherlink.com 1.10,2014-04-17 14:32:00,
2014-04-17 09:47:00,44.1,36.0,30.09,SW,218,5.0,8.0,74,0.00,,,0.00,weatherlink.com 1.10,2014-04-17 14:47:00,